User: anonymous
Location: Lone Wolf Observatory
(41.0360°N, 89.2260°W)
Time: 01:24:41
(UTC-05:00)
Language:

Cosmos 1378 Rocket - Orbit

View from above orbital plane
View from above orbital plane
View from above satellite
View from above satellite

Ground track
Ground track

The orbit data is extracted from the following two-line orbital elements,

1 13272U 82059B   14273.75937199  .00000335  00000-0  37150-4 0  8738
2 13272 082.5132 349.5699 0020032 144.9111 215.3429 14.84074949744967
Epoch (UTC): 30 September 2014 18:13:29
Eccentricity: 0.0020032
inclination: 82.5132°
perigee height: 602 km
apogee height: 630 km
right ascension of ascending node: 349.5699°
argument of perigee: 144.9111°
revolutions per day: 14.84074949
mean anomaly at epoch: 215.3429°
orbit number at epoch: 74496

The dashed part of the orbit path shows where the satellite is in the earth's shadow,  

DLR